1535274000.17,7671,18.5,73592.3,6.09,5.51,5.45,0,*40
1535274001.37,7672,18.5,73596.8,6.09,5.41,5.37,0,*47
1535274002.62,7673,18.5,73594.8,6.09,5.51,5.55,0,*43
1535274003.82,7674,18.5,73600.3,6.09,5.41,5.45,0,*44
1535274005.04,7675,18.5,73602.5,6.09,5.67,5.67,0,*41
1535274006.29,7676,18.44,73598.3,6.09,5.73,5.73,0,*42
1535274007.51,7677,18.5,73600.0,6.09,5.55,5.63,0,*46
1535274008.72,7678,18.44,73596.5,6.09,5.95,5.99,0,*40
1535274009.93,7679,18.5,73598.3,6.09,5.95,5.99,0,*41
1535274011.14,7680,18.5,73600.3,6.09,6.07,5.99,0,*4F
1535274012.34,7681,18.5,73602.0,6.09,5.37,5.41,0,*4B
1535274013.57,7682,18.5,73602.3,6.07,5.55,5.55,0,*47
1535274014.75,7683,18.5,73600.5,6.07,5.63,5.63,0,*46
1535274016.0,7684,18.5,73600.3,6.09,5.51,5.51,0,*4F
1535274017.22,7685,18.44,73602.8,6.07,5.51,5.55,0,*44
1535274018.45,7686,18.5,73600.3,6.07,5.77,5.77,0,*43
1535274019.66,7687,18.5,73604.0,6.07,5.89,5.99,0,*43
1535274020.88,7688,18.5,73602.0,6.07,5.77,5.85,0,*40
1535274022.07,7689,18.5,73602.0,6.07,5.95,5.95,0,*4C
1535274023.28,7690,18.5,73604.0,6.07,5.89,5.95,0,*49
1535274024.5,7691,18.5,73606.8,6.07,5.77,5.89,0,*44
1535274025.7,7692,18.5,73606.0,6.07,5.63,5.73,0,*47
1535274026.91,7693,18.5,73610.0,6.09,5.63,5.67,0,*4D
1535274028.16,7694,18.5,73606.8,6.09,5.77,5.77,0,*4E
1535274029.35,7695,18.44,73610.8,6.07,5.67,5.67,0,*41
1535274030.55,7696,18.44,73610.0,6.07,5.55,5.63,0,*47
1535274031.79,7697,18.5,73608.5,6.09,5.77,5.77,0,*4D
1535274032.99,7698,18.5,73606.3,6.05,5.63,5.63,0,*4E
1535274034.22,7699,18.5,73604.8,6.05,5.51,5.59,0,*47
1535274035.42,7700,18.5,73612.5,6.05,5.37,5.41,0,*4F
1535274036.62,7701,18.5,73606.5,6.05,5.37,5.33,0,*4B
1535274037.8,7702,18.5,73610.0,6.07,5.41,5.37,0,*4F
1535274038.99,7703,18.5,73608.3,6.05,5.37,5.41,0,*4C
1535274040.19,7704,18.5,73610.0,6.03,5.55,5.59,0,*40
1535274041.36,7705,18.5,73608.8,6.03,5.45,5.45,0,*4D
1535274042.57,7706,18.44,73608.3,6.05,5.63,5.71,0,*4B
1535274043.79,7707,18.5,73608.3,6.03,5.77,5.81,0,*46
1535274045.02,7708,18.5,73606.3,6.03,5.81,5.81,0,*40
1535274046.27,7709,18.44,73600.8,6.05,5.81,5.81,0,*47
1535274047.52,7710,18.44,73600.5,6.05,5.81,5.73,0,*42
1535274048.72,7711,18.5,73602.3,6.05,5.59,5.59,0,*4E
1535274049.92,7712,18.5,73602.0,6.05,5.41,5.41,0,*4D
1535274051.12,7713,18.5,73600.8,6.05,5.37,5.33,0,*48
1535274052.32,7714,18.5,73602.0,6.05,5.41,5.49,0,*43
1535274053.5,7715,18.5,73602.0,6.03,5.33,5.37,0,*48
1535274054.68,7716,18.5,73596.8,6.03,5.33,5.33,0,*4F
1535274055.86,7717,18.5,73602.0,6.03,5.33,5.33,0,*4E
1535274057.06,7718,18.5,73602.0,6.01,5.29,5.29,0,*43
1535274058.26,7719,18.5,73602.3,6.01,5.33,5.33,0,*42
1535274059.45,7720,18.5,73598.8,6.01,5.29,5.29,0,*48
1535274060.66,7721,18.5,73602.5,6.01,5.23,5.19,0,*40
1535274061.84,7722,18.5,73604.5,6.03,5.37,5.49,0,*41
1535274063.02,7723,18.5,73604.5,5.99,5.67,5.67,0,*49
1535274064.24,7724,18.5,73600.5,6.01,5.55,5.45,0,*4D
1535274065.44,7725,18.44,73600.5,6.01,5.49,5.49,0,*4D
1535274066.61,7726,18.5,73606.0,5.99,5.41,5.41,0,*4C
1535274067.79,7727,18.5,73604.5,5.99,5.41,5.41,0,*4D
1535274068.96,7728,18.5,73606.3,5.99,5.41,5.45,0,*46
1535274070.13,7729,18.5,73608.0,5.99,5.45,5.45,0,*43
1535274071.36,7730,18.5,73602.8,5.99,5.55,5.55,0,*4B
1535274072.58,7731,18.5,73608.0,5.99,5.51,5.51,0,*4A
1535274073.8,7732,18.5,73606.5,5.99,5.55,5.51,0,*4D
1535274075.0,7733,18.5,73606.0,5.97,5.41,5.41,0,*46
1535274076.2,7734,18.5,73600.8,5.99,5.55,5.63,0,*4A
1535274077.41,7735,18.5,73604.8,5.97,5.63,5.63,0,*40
1535274078.63,7736,18.5,73606.8,5.99,5.85,5.85,0,*4D
1535274079.86,7737,18.5,73608.5,5.99,5.89,5.89,0,*4C
1535274081.05,7738,18.5,73604.3,5.99,5.95,5.95,0,*43
1535274082.27,7739,18.5,73608.0,5.99,5.85,5.89,0,*4E
1535274083.48,7740,18.5,73608.5,5.99,5.99,5.89,0,*4D
1535274084.67,7741,18.5,73610.3,5.99,6.03,6.03,0,*4D
1535274085.86,7742,18.5,73606.5,6.01,6.07,6.07,0,*4C
1535274087.09,7743,18.5,73610.5,6.01,6.07,6.13,0,*48
1535274088.28,7744,18.5,73608.0,6.03,6.07,6.13,0,*4D
1535274089.51,7745,18.5,73608.5,6.03,6.13,6.13,0,*49
1535274090.77,7746,18.5,73608.8,6.05,6.17,6.17,0,*4C
1535274091.97,7747,18.5,73608.5,6.05,6.21,6.21,0,*4D
1535274093.18,7748,18.5,73614.8,6.05,6.29,6.29,0,*42
1535274094.39,7749,18.5,73614.3,6.07,6.13,6.21,0,*40
1535274095.64,7750,18.5,73612.5,6.05,5.81,5.81,0,*4B
1535274096.84,7751,18.5,73614.3,6.05,5.59,5.63,0,*43
1535274098.06,7752,18.5,73614.3,6.05,5.71,5.73,0,*4B
1535274099.31,7753,18.5,73614.5,6.05,5.73,5.73,0,*48
1535274100.52,7754,18.5,73614.8,6.07,5.89,5.95,0,*40
1535274101.72,7755,18.5,73612.5,6.05,5.95,5.95,0,*4E
1535274102.96,7756,18.5,73614.5,6.05,5.93,5.95,0,*4B
1535274104.21,7757,18.5,73614.5,6.05,5.81,5.93,0,*4F
1535274105.46,7758,18.5,73614.3,6.05,5.93,5.93,0,*43
1535274106.72,7759,18.5,73608.0,6.05,5.93,5.93,0,*42
1535274107.94,7760,18.5,73612.3,6.05,5.85,5.95,0,*49
1535274109.12,7761,18.5,73608.3,6.07,6.07,6.11,0,*4C
1535274110.35,7762,18.5,73608.0,6.07,6.13,6.13,0,*48
1535274111.58,7763,18.5,73604.5,6.07,6.13,6.13,0,*49
1535274112.84,7764,18.5,73608.3,6.05,6.17,6.17,0,*4C
1535274114.02,7765,18.5,73604.8,6.07,5.95,5.95,0,*4F
1535274115.22,7766,18.5,73608.0,6.05,5.63,5.71,0,*4D
1535274116.45,7767,18.5,73608.5,6.07,5.85,5.77,0,*40
1535274117.64,7768,18.5,73606.3,6.07,5.67,5.67,0,*42
1535274118.86,7769,18.5,73606.8,6.07,5.73,5.77,0,*47
1535274120.05,7770,18.5,73608.0,6.07,5.95,5.99,0,*47
1535274121.31,7771,18.5,73604.5,6.05,5.93,5.93,0,*48
1535274122.5,7772,18.5,73608.5,6.07,5.67,5.67,0,*49
1535274123.72,7773,18.5,73608.5,6.07,5.55,5.55,0,*48
1535274124.92,7774,18.5,73612.3,6.05,5.41,5.49,0,*45
1535274126.17,7775,18.5,73614.5,6.05,5.85,5.85,0,*4C
1535274127.37,7776,18.5,73612.8,6.05,6.11,6.11,0,*4F
1535274128.59,7777,18.5,73612.8,6.05,6.21,6.33,0,*4D
1535274129.79,7778,18.5,73616.3,6.05,6.21,6.21,0,*41
1535274131.01,7779,18.5,73614.8,6.05,6.03,6.03,0,*40
1535274132.24,7780,18.5,73610.8,6.07,6.13,6.13,0,*44
1535274133.45,7781,18.5,73608.3,6.05,6.03,6.07,0,*43
1535274134.63,7782,18.5,73608.3,6.07,5.95,5.99,0,*4A
1535274135.82,7783,18.5,73604.8,6.07,5.95,5.99,0,*4B
1535274137.03,7784,18.5,73604.3,6.13,5.99,5.99,0,*45
1535274138.23,7785,18.5,73606.8,6.13,6.03,6.11,0,*47
1535274139.44,7786,18.5,73604.3,6.09,5.99,6.11,0,*4F
1535274140.67,7787,18.5,73606.8,6.07,5.73,5.77,0,*47
1535274141.89,7788,18.5,73606.5,6.07,5.73,5.73,0,*4C
1535274143.14,7789,18.5,73604.0,6.05,5.81,5.93,0,*4C
1535274144.36,7790,18.5,73602.0,6.09,5.99,5.99,0,*4B
1535274145.56,7791,18.5,73600.3,6.09,5.99,6.07,0,*4E
1535274146.79,7792,18.5,73602.8,6.09,6.11,6.13,0,*4B
1535274147.99,7793,18.5,73600.8,6.09,6.11,6.07,0,*4F
1535274149.2,7794,18.5,73604.3,6.09,5.95,6.07,0,*47
1535274150.42,7795,18.5,73600.0,6.09,5.67,5.73,0,*4B
1535274151.63,7796,18.5,73602.0,6.07,5.67,5.77,0,*42
1535274152.83,7797,18.5,73600.3,6.07,5.67,5.73,0,*47
1535274154.08,7798,18.5,73602.5,6.09,5.73,5.77,0,*47
1535274155.31,7799,18.5,73600.3,6.07,5.73,5.73,0,*4C
1535274156.51,7800,18.5,73600.0,6.07,5.63,5.73,0,*42
1535274157.73,7801,18.5,73606.3,6.07,5.77,5.77,0,*42
1535274158.92,7802,18.5,73600.0,6.07,5.67,5.67,0,*41
1535274160.1,7803,18.5,73602.5,6.07,5.63,5.63,0,*40
1535274161.29,7804,18.5,73602.0,6.07,5.67,5.67,0,*47
1535274162.54,7805,18.5,73604.0,6.05,5.93,5.93,0,*44
1535274163.75,7806,18.5,73600.0,6.09,5.99,5.99,0,*4B
1535274164.99,7807,18.5,73604.5,6.07,6.13,6.13,0,*44
1535274166.19,7808,18.5,73602.5,6.09,6.07,6.11,0,*42
1535274167.42,7809,18.5,73600.3,6.09,5.95,5.89,0,*49
1535274168.63,7810,18.5,73600.0,6.09,5.99,5.99,0,*4C
1535274169.83,7811,18.5,73600.0,6.09,6.07,6.07,0,*4D
1535274171.02,7812,18.5,73604.0,6.07,5.99,5.99,0,*40
1535274172.21,7813,18.5,73606.8,6.07,5.95,5.99,0,*4D
1535274173.42,7814,18.5,73604.5,6.09,5.99,5.99,0,*48
1535274174.62,7815,18.5,73600.8,6.07,6.07,6.13,0,*42
1535274175.8,7816,18.5,73604.5,6.07,5.95,5.95,0,*44
1535274177.04,7817,18.5,73604.0,6.07,5.89,5.89,0,*45
1535274178.24,7818,18.5,73604.3,6.09,5.99,6.07,0,*40
1535274179.49,7819,18.5,73606.0,6.09,6.13,6.13,0,*45
1535274180.74,7820,18.5,73604.5,6.09,6.53,6.57,0,*4B
1535274181.98,7821,18.5,73602.5,6.13,6.57,6.57,0,*45
1535274183.22,7822,18.5,73602.0,6.09,6.33,6.43,0,*4A
1535274184.43,7823,18.5,73606.8,6.15,6.25,6.35,0,*40
1535274185.63,7824,18.5,73608.0,6.13,6.25,6.29,0,*4C
1535274186.84,7825,18.5,73604.5,6.13,6.25,6.25,0,*41
1535274188.06,7826,18.5,73606.3,6.13,6.13,6.25,0,*47
1535274189.28,7827,18.5,73608.0,6.13,6.17,6.29,0,*4E
1535274190.54,7828,18.5,73610.0,6.13,6.35,6.39,0,*40
1535274191.79,7829,18.5,73608.8,6.17,6.61,6.61,0,*49
1535274193.02,7830,18.5,73610.3,6.15,6.47,6.47,0,*43
1535274194.27,7831,18.5,73608.5,6.17,6.39,6.53,0,*4C
1535274195.49,7832,18.5,73610.8,6.15,6.51,6.57,0,*47
1535274196.74,7833,18.5,73608.3,6.17,6.53,6.61,0,*43
1535274197.96,7834,18.5,73608.5,6.19,6.53,6.65,0,*4E
1535274199.18,7835,18.5,73608.8,6.19,6.53,6.65,0,*4F
1535274200.4,7836,18.5,73610.0,6.19,6.53,6.53,0,*49
1535274201.63,7837,18.5,73608.8,6.21,6.47,6.53,0,*46
1535274202.84,7838,18.5,73608.5,6.21,6.69,6.69,0,*4C
1535274204.06,7839,18.5,73608.0,6.21,6.65,6.69,0,*41
1535274205.28,7840,18.5,73608.0,6.21,6.53,6.65,0,*46
1535274206.5,7841,18.5,73604.8,6.21,6.47,6.53,0,*47
1535274207.76,7842,18.5,73606.5,6.23,6.39,6.51,0,*4D
1535274209.0,7843,18.5,73600.8,6.25,6.35,6.35,0,*44
1535274210.21,7844,18.5,73602.8,6.23,6.21,6.21,0,*45
1535274211.44,7845,18.5,73602.8,6.23,6.13,6.21,0,*45
1535274212.65,7846,18.5,73600.0,6.23,6.03,6.11,0,*44
1535274213.86,7847,18.5,73600.0,6.23,6.03,6.11,0,*45
1535274215.04,7848,18.5,73598.8,6.21,6.11,6.07,0,*4C
1535274216.21,7849,18.5,73596.5,6.21,6.07,6.11,0,*4D
1535274217.39,7850,18.5,73596.5,6.19,5.95,5.99,0,*45
1535274218.57,7851,18.5,73594.8,6.21,6.07,6.11,0,*44
1535274219.8,7852,18.5,73598.0,6.19,6.17,6.17,0,*4B
1535274221.02,7853,18.5,73596.5,6.21,6.17,6.17,0,*41
1535274222.24,7854,18.5,73598.5,6.21,5.85,5.89,0,*4A
1535274223.46,7855,18.5,73596.8,6.21,5.73,5.77,0,*43
1535274224.64,7856,18.5,73598.8,6.19,5.63,5.63,0,*4F
1535274225.86,7857,18.5,73602.5,6.21,5.55,5.51,0,*41
1535274227.08,7858,18.5,73602.0,6.19,5.85,5.77,0,*4C
1535274228.26,7859,18.5,73606.0,6.19,6.11,6.11,0,*40
1535274229.47,7860,18.5,73608.0,6.19,6.17,6.25,0,*4B
1535274230.68,7861,18.5,73610.5,6.19,6.33,6.35,0,*4D
1535274231.91,7862,18.5,73606.3,6.21,6.43,6.43,0,*43
1535274233.13,7863,18.5,73608.3,6.19,6.53,6.53,0,*49
1535274234.36,7864,18.5,73610.8,6.21,6.43,6.43,0,*45
1535274235.59,7865,18.5,73610.0,6.21,6.43,6.43,0,*44
1535274236.82,7866,18.5,73604.8,6.21,6.35,6.43,0,*46
1535274238.05,7867,18.5,73608.3,6.25,6.39,6.39,0,*42
1535274239.26,7868,18.5,73606.5,6.21,6.53,6.57,0,*4D
1535274240.5,7869,18.5,73608.0,6.21,6.43,6.47,0,*4C
1535274241.76,7870,18.5,73606.5,6.23,6.47,6.47,0,*42
1535274243.0,7871,18.5,73606.5,6.25,6.47,6.51,0,*42
1535274244.26,7872,18.5,73606.3,6.23,6.51,6.51,0,*40
1535274245.47,7873,18.5,73606.0,6.23,6.21,6.21,0,*41
1535274246.67,7874,18.5,73600.8,6.23,6.11,6.21,0,*45
1535274247.9,7875,18.5,73602.8,6.25,5.81,5.77,0,*48
1535274249.12,7876,18.5,73604.5,6.23,5.71,5.77,0,*42
1535274250.33,7877,18.5,73608.8,6.23,6.03,6.11,0,*46
1535274251.56,7878,18.5,73606.5,6.23,5.99,6.13,0,*4B
1535274252.77,7879,18.5,73602.3,6.23,5.99,5.99,0,*4B
1535274253.94,7880,18.5,73604.8,6.21,5.95,6.07,0,*47
1535274255.14,7881,18.5,73608.5,6.21,5.73,5.67,0,*4B
1535274256.36,7882,18.5,73604.5,6.21,5.73,5.73,0,*4D
1535274257.54,7883,18.5,73604.5,6.21,5.99,5.95,0,*40
1535274258.74,7884,18.5,73602.8,6.21,5.67,5.77,0,*4A
1535274259.93,7885,18.5,73606.3,6.21,5.55,5.63,0,*4F
1535274261.13,7886,18.5,73606.0,6.19,5.67,5.73,0,*47
1535274262.33,7887,18.5,73602.8,6.19,5.67,5.73,0,*46
1535274263.53,7888,18.5,73606.0,6.19,5.55,5.67,0,*4D
1535274264.76,7889,18.5,73602.8,6.17,5.49,5.51,0,*4A
1535274265.96,7890,18.5,73604.5,6.19,5.67,5.73,0,*40
1535274267.14,7891,18.5,73602.5,6.19,5.99,5.99,0,*44
1535274268.32,7892,18.5,73600.0,6.19,6.11,6.11,0,*47
1535274269.51,7893,18.5,73604.5,6.19,5.95,5.99,0,*4A
1535274270.68,7894,18.5,73608.0,6.21,5.63,5.63,0,*4A
1535274271.88,7895,18.5,73602.8,6.17,5.37,5.45,0,*4B
1535274273.07,7896,18.5,73602.8,6.15,5.55,5.49,0,*42
1535274274.28,7897,18.5,73608.8,6.19,5.89,5.95,0,*4F
1535274275.5,7898,18.5,73608.0,6.15,5.81,5.89,0,*49
1535274276.73,7899,18.5,73610.0,6.15,5.55,5.55,0,*40
1535274277.89,7900,18.5,73608.3,6.15,5.45,5.49,0,*4D
1535274279.07,7901,18.5,73604.8,6.15,5.23,5.29,0,*4A
1535274280.27,7902,18.5,73606.3,6.13,5.33,5.33,0,*45
1535274281.48,7903,18.5,73608.8,6.15,5.77,5.77,0,*42
1535274282.73,7904,18.5,73610.5,6.13,5.93,5.93,0,*43
1535274283.96,7905,18.5,73608.0,6.13,6.03,6.13,0,*43
1535274285.17,7906,18.5,73610.8,6.13,6.25,6.25,0,*41
1535274286.38,7907,18.5,73610.5,6.15,6.29,6.35,0,*4B
1535274287.58,7908,18.5,73612.5,6.15,6.29,6.39,0,*48
1535274288.81,7909,18.5,73608.3,6.15,6.47,6.51,0,*4F
1535274290.02,7910,18.5,73610.5,6.15,6.29,6.35,0,*4D
1535274291.2,7911,18.5,73612.3,6.15,6.29,6.29,0,*41
1535274292.42,7912,18.5,73604.5,6.19,6.33,6.35,0,*48
1535274293.67,7913,18.5,73608.5,6.17,6.43,6.51,0,*42
1535274294.89,7914,18.5,73608.5,6.17,6.33,6.33,0,*46
1535274296.08,7915,18.5,73608.5,6.19,6.33,6.33,0,*49
1535274297.26,7916,18.5,73608.5,6.21,6.21,6.33,0,*42
1535274298.49,7917,18.5,73608.8,6.19,6.17,6.17,0,*4B
1535274299.69,7918,18.5,73610.5,6.21,6.17,6.21,0,*4A
1535274300.87,7919,18.5,73606.5,6.21,6.25,6.25,0,*4E
1535274302.08,7920,18.5,73604.0,6.19,6.25,6.35,0,*4E
1535274303.26,7921,18.5,73608.5,6.21,6.21,6.25,0,*41
1535274304.49,7922,18.5,73606.0,6.19,6.17,6.17,0,*4D
1535274305.71,7923,18.5,73604.5,6.21,6.17,6.17,0,*47
1535274306.89,7924,18.5,73602.3,6.21,5.95,6.07,0,*48
1535274308.07,7925,18.5,73606.8,6.21,5.99,5.99,0,*41
1535274309.27,7926,18.5,73606.0,6.21,6.11,6.17,0,*44
1535274310.45,7927,18.5,73606.5,6.21,6.25,6.33,0,*44
1535274311.63,7928,18.5,73608.3,6.21,6.25,6.25,0,*4C
1535274312.82,7929,18.5,73606.8,6.19,6.21,6.25,0,*42
1535274314.04,7930,18.5,73604.5,6.21,6.17,6.17,0,*45
1535274315.27,7931,18.5,73604.8,6.19,6.17,6.17,0,*4F
1535274316.49,7932,18.5,73604.0,6.21,6.17,6.17,0,*47
1535274317.67,7933,18.5,73606.5,6.21,6.25,6.25,0,*46
1535274318.85,7934,18.5,73606.3,6.21,6.25,6.25,0,*41
1535274320.06,7935,18.5,73604.5,6.23,6.29,6.29,0,*42
1535274321.27,7936,18.5,73606.3,6.23,6.21,6.29,0,*49
1535274322.47,7937,18.5,73608.8,6.23,6.11,6.21,0,*43
1535274323.72,7938,18.5,73604.0,6.23,6.13,6.13,0,*4F
1535274324.98,7939,18.5,73606.8,6.23,6.39,6.39,0,*4E
1535274326.24,7940,18.5,73606.0,6.23,6.35,6.39,0,*4C
1535274327.5,7941,18.5,73600.8,6.23,6.35,6.47,0,*44
1535274328.76,7942,18.5,73600.3,6.23,6.51,6.57,0,*44
1535274329.98,7943,18.5,73604.0,6.23,6.73,6.79,0,*49
1535274331.21,7944,18.5,73602.8,6.25,6.51,6.57,0,*44
1535274332.41,7945,18.5,73602.8,6.25,6.03,6.03,0,*43
1535274333.66,7946,18.5,73604.8,6.23,5.81,5.81,0,*46
1535274334.87,7947,18.5,73604.5,6.23,5.99,6.03,0,*47
1535274336.09,7948,18.5,73604.3,6.23,6.11,6.13,0,*4A
1535274337.29,7949,18.5,73604.8,6.25,6.03,6.03,0,*4F
1535274338.54,7950,18.5,73602.0,6.23,6.13,6.13,0,*41
1535274339.75,7951,18.5,73606.3,6.23,6.21,6.29,0,*48
1535274340.96,7952,18.5,73604.3,6.25,6.29,6.35,0,*48
1535274342.17,7953,18.5,73606.3,6.23,6.21,6.25,0,*46
1535274343.43,7954,18.5,73604.0,6.23,5.93,5.93,0,*45
1535274344.68,7955,18.5,73606.5,6.23,5.81,5.89,0,*4C
1535274345.88,7956,18.5,73606.0,6.23,6.11,6.11,0,*47
1535274347.12,7957,18.5,73604.0,6.25,6.35,6.35,0,*40
1535274348.37,7958,18.44,73602.3,6.23,6.69,6.57,0,*44
1535274349.59,7959,18.5,73606.5,6.25,6.57,6.61,0,*4B
1535274350.83,7960,18.5,73600.5,6.25,6.47,6.51,0,*43
1535274352.06,7961,18.5,73604.0,6.25,6.47,6.51,0,*42
1535274353.3,7962,18.5,73604.0,6.25,6.57,6.51,0,*40
1535274354.54,7963,18.5,73602.8,6.25,6.35,6.47,0,*42
1535274355.73,7964,18.5,73602.0,6.25,6.21,6.21,0,*40
1535274356.95,7965,18.5,73600.3,6.27,6.07,6.13,0,*46
1535274358.16,7966,18.5,73602.3,6.27,6.25,6.33,0,*47
1535274359.35,7967,18.5,73602.8,6.25,6.25,6.25,0,*43
1535274360.59,7968,18.5,73600.8,6.25,6.35,6.39,0,*40
1535274361.84,7969,18.5,73602.5,6.27,6.39,6.43,0,*42
1535274363.1,7970,18.5,73600.3,6.27,6.51,6.53,0,*45
1535274364.33,7971,18.5,73600.5,6.27,6.03,6.13,0,*47
1535274365.57,7972,18.5,73600.3,6.27,5.93,6.03,0,*4F
1535274366.82,7973,18.5,73602.3,6.27,6.17,6.17,0,*44
1535274368.03,7974,18.5,73604.0,6.27,6.29,6.29,0,*43
1535274369.28,7975,18.5,73596.3,6.27,6.13,6.13,0,*42
1535274370.5,7976,18.5,73600.5,6.25,5.93,5.99,0,*49
1535274371.73,7977,18.5,73602.5,6.25,5.81,5.85,0,*46
1535274372.95,7978,18.5,73600.8,6.27,5.71,5.81,0,*40
1535274374.14,7979,18.5,73598.5,6.25,5.67,5.67,0,*4C
1535274375.33,7980,18.5,73600.3,6.25,5.67,5.67,0,*4A
1535274376.56,7981,18.5,73600.0,6.25,5.89,5.93,0,*40
1535274377.76,7982,18.5,73602.5,6.23,5.59,5.59,0,*4E
1535274378.99,7983,18.5,73604.3,6.23,5.59,5.55,0,*43
1535274380.21,7984,18.5,73602.8,6.23,5.45,5.51,0,*4D
1535274381.44,7985,18.5,73604.8,6.23,5.41,5.51,0,*48
1535274382.66,7986,18.5,73604.5,6.21,5.85,5.85,0,*48
1535274383.89,7987,18.5,73604.3,6.23,6.21,6.13,0,*4A
1535274385.13,7988,18.5,73604.5,6.21,6.35,6.35,0,*46
1535274386.35,7989,18.5,73604.8,6.19,6.53,6.57,0,*48
1535274387.57,7990,18.5,73604.8,6.25,6.39,6.39,0,*4B
1535274388.76,7991,18.5,73606.8,6.25,6.11,6.11,0,*4A
1535274389.97,7992,18.5,73608.8,6.23,5.99,6.03,0,*4F
1535274391.18,7993,18.5,73608.5,6.23,6.03,6.11,0,*4D
1535274392.41,7994,18.5,73608.3,6.23,6.13,6.11,0,*4B
1535274393.62,7995,18.5,73610.5,6.23,6.21,6.25,0,*4C
1535274394.88,7996,18.5,73608.8,6.23,6.39,6.47,0,*42
1535274396.13,7997,18.5,73608.3,6.23,6.57,6.61,0,*4F
1535274397.31,7998,18.5,73606.3,6.25,6.25,6.21,0,*47
1535274398.52,7999,18.5,73604.3,6.23,6.11,6.11,0,*44
1535274399.75,8000,18.5,73608.0,6.23,6.11,6.13,0,*40
1535274400.95,8001,18.5,73606.3,6.25,6.11,6.13,0,*47
1535274402.13,8002,18.5,73606.0,6.25,6.25,6.29,0,*4A
1535274403.32,8003,18.5,73604.0,6.25,6.21,6.21,0,*47
1535274404.5,8004,18.5,73606.8,6.25,6.21,6.21,0,*40
1535274405.68,8005,18.5,73606.5,6.25,6.11,6.11,0,*41
1535274406.9,8006,18.5,73606.3,6.25,6.25,6.35,0,*43
1535274408.11,8007,18.44,73602.3,6.23,6.21,6.21,0,*45
1535274409.32,8008,18.5,73608.3,6.25,6.13,6.25,0,*49
1535274410.52,8009,18.5,73604.3,6.25,6.13,6.21,0,*4C
1535274411.71,8010,18.5,73604.8,6.25,6.25,6.29,0,*49
1535274412.92,8011,18.44,73600.3,6.23,6.25,6.29,0,*4E
1535274414.1,8012,18.5,73606.3,6.25,5.99,6.03,0,*47
1535274415.28,8013,18.5,73606.0,6.25,5.99,6.11,0,*45
1535274416.49,8014,18.5,73608.3,6.25,6.13,6.21,0,*40
1535274417.68,8015,18.5,73606.5,6.25,6.29,6.29,0,*40
1535274418.88,8016,18.5,73606.3,6.23,6.21,6.29,0,*4D
1535274420.11,8017,18.5,73602.8,6.25,6.39,6.39,0,*42
1535274421.3,8018,18.5,73606.3,6.25,6.21,6.25,0,*49
1535274422.48,8019,18.5,73606.0,6.25,6.11,6.11,0,*4C
1535274423.71,8020,18.5,73606.3,6.25,5.93,5.89,0,*4D
1535274424.9,8021,18.5,73606.0,6.25,6.03,5.99,0,*47
1535274426.1,8022,18.5,73606.5,6.25,6.03,6.03,0,*44
1535274427.28,8023,18.5,73606.3,6.25,6.11,6.11,0,*45
1535274428.49,8024,18.5,73604.3,6.25,5.93,6.03,0,*48
1535274429.7,8025,18.5,73604.0,6.25,6.13,6.21,0,*42
1535274430.91,8026,18.5,73604.8,6.25,6.29,6.35,0,*4D
1535274432.17,8027,18.5,73608.5,6.23,6.39,6.51,0,*49
1535274433.41,8028,18.5,73604.3,6.25,6.35,6.35,0,*4E
1535274434.66,8029,18.5,73606.8,6.27,6.53,6.53,0,*4D
1535274435.91,8030,18.5,73604.8,6.27,6.39,6.43,0,*48
1535274437.17,8031,18.5,73608.3,6.27,6.17,6.17,0,*44
1535274438.39,8032,18.5,73608.8,6.27,6.07,6.17,0,*46
1535274439.61,8033,18.5,73608.8,6.27,6.03,6.03,0,*46
1535274440.87,8034,18.5,73608.3,6.27,5.93,5.93,0,*41
1535274442.12,8035,18.5,73614.8,6.27,5.93,5.93,0,*40
1535274443.38,8036,18.5,73608.3,6.27,5.81,5.93,0,*40
1535274444.63,8037,18.5,73610.5,6.27,5.81,5.85,0,*46
1535274445.81,8038,18.5,73608.0,6.25,6.11,6.11,0,*4F
1535274446.99,8039,18.5,73608.5,6.25,6.21,6.29,0,*46
1535274448.18,8040,18.5,73608.8,6.25,6.29,6.29,0,*40
1535274449.42,8041,18.5,73612.8,6.25,6.47,6.51,0,*46
1535274450.66,8042,18.5,73614.8,6.27,6.53,6.61,0,*41
1535274451.92,8043,18.5,73618.5,6.27,6.43,6.51,0,*42
1535274453.11,8044,18.5,73612.8,6.29,6.25,6.33,0,*4F
1535274454.32,8045,18.5,73614.0,6.27,6.29,6.33,0,*4C
1535274455.55,8046,18.5,73612.0,6.29,6.51,6.61,0,*49
1535274456.8,8047,18.5,73612.5,6.27,6.51,6.53,0,*47
1535274458.0,8048,18.5,73610.3,6.29,6.29,6.39,0,*45
1535274459.19,8049,18.5,73610.0,6.29,6.25,6.25,0,*45
1535274460.37,8050,18.5,73606.3,6.29,6.33,6.33,0,*4D
1535274461.55,8051,18.5,73606.3,6.29,6.33,6.33,0,*4C
1535274462.78,8052,18.5,73604.0,6.29,6.51,6.53,0,*4D
1535274464.0,8053,18.5,73606.3,6.31,6.79,6.91,0,*41
1535274465.2,8054,18.5,73604.5,6.31,6.75,6.75,0,*40
1535274466.46,8055,18.5,73602.5,6.31,6.43,6.43,0,*41
1535274467.66,8056,18.5,73600.3,6.31,6.29,6.29,0,*42
1535274468.87,8057,18.5,73602.8,6.35,6.25,6.25,0,*47
1535274470.13,8058,18.44,73602.3,6.31,6.35,6.43,0,*4D
1535274471.37,8059,18.5,73606.5,6.31,6.47,6.57,0,*4C
1535274472.64,8060,18.5,73600.3,6.31,6.35,6.47,0,*42
1535274473.84,8061,18.5,73604.5,6.31,6.07,6.11,0,*41
1535274475.04,8062,18.5,73598.5,6.31,6.07,6.11,0,*42
1535274476.24,8063,18.5,73600.0,6.35,6.11,6.11,0,*40
1535274477.46,8064,18.5,73600.5,6.35,5.71,5.77,0,*41
1535274478.65,8065,18.5,73600.0,6.31,5.49,5.49,0,*42
1535274479.84,8066,18.5,73594.5,6.29,5.27,5.33,0,*4D
1535274481.01,8067,18.5,73598.3,6.29,5.45,5.49,0,*45
1535274482.23,8068,18.5,73594.5,6.29,5.73,5.85,0,*4F
1535274483.46,8069,18.5,73596.5,6.27,5.73,5.71,0,*4B
1535274484.71,8070,18.5,73598.8,6.27,5.81,5.73,0,*4C
1535274485.93,8071,18.5,73602.8,6.29,5.85,5.85,0,*4E
1535274487.12,8072,18.5,73602.0,6.25,6.03,6.11,0,*42
1535274488.31,8073,18.5,73606.8,6.25,6.21,6.21,0,*40
1535274489.55,8074,18.5,73604.0,6.27,6.53,6.53,0,*45
1535274490.8,8075,18.5,73604.0,6.27,6.53,6.65,0,*41
1535274492.03,8076,18.5,73608.0,6.29,6.51,6.53,0,*4B
1535274493.26,8077,18.5,73610.3,6.29,6.51,6.43,0,*4B
1535274494.51,8078,18.5,73606.0,6.27,6.39,6.43,0,*44
1535274495.74,8079,18.5,73608.0,6.29,6.43,6.53,0,*47
1535274496.96,8080,18.5,73610.3,6.29,6.39,6.43,0,*4D
1535274498.19,8081,18.5,73612.3,6.29,6.43,6.43,0,*41
1535274499.41,8082,18.5,73604.5,6.29,6.53,6.53,0,*42
1535274500.64,8083,18.5,73608.5,6.29,6.43,6.51,0,*40
1535274501.9,8084,18.5,73610.3,6.35,6.51,6.51,0,*49
1535274503.14,8085,18.5,73606.0,6.35,6.69,6.69,0,*48
1535274504.33,8086,18.5,73610.0,6.35,6.79,6.83,0,*4E
1535274505.56,8087,18.5,73610.8,6.35,6.73,6.79,0,*40
1535274506.82,8088,18.5,73610.5,6.35,6.51,6.47,0,*42
1535274508.08,8089,18.5,73614.8,6.35,6.35,6.39,0,*48
1535274509.34,8090,18.5,73610.0,6.35,6.51,6.51,0,*4C
1535274510.55,8091,18.5,73608.3,6.37,6.57,6.57,0,*4F
1535274511.78,8092,18.5,73610.8,6.37,6.47,6.47,0,*4C
1535274513.01,8093,18.5,73608.3,6.37,6.35,6.35,0,*4D
1535274514.24,8094,18.5,73614.8,6.37,6.39,6.47,0,*43
1535274515.43,8095,18.5,73608.8,6.37,6.61,6.79,0,*42
1535274516.63,8096,18.5,73608.0,6.39,6.83,6.75,0,*4F
1535274517.85,8097,18.5,73604.0,6.37,6.51,6.57,0,*4F
1535274519.1,8098,18.5,73604.8,6.39,6.51,6.51,0,*48
1535274520.33,8099,18.5,73606.0,6.37,6.47,6.51,0,*40
1535274521.55,8100,18.5,73604.0,6.41,6.57,6.69,0,*4A
1535274522.81,8101,18.5,73608.5,6.39,6.51,6.51,0,*49
1535274524.07,8102,18.5,73604.8,6.39,6.51,6.43,0,*49
1535274525.33,8103,18.5,73606.8,6.39,6.35,6.39,0,*47
1535274526.53,8104,18.5,73606.3,6.37,6.35,6.33,0,*44
1535274527.75,8105,18.5,73608.8,6.37,6.13,6.13,0,*43
1535274528.92,8106,18.5,73604.8,6.37,6.11,6.21,0,*43
1535274530.09,8107,18.5,73610.3,6.37,6.11,6.21,0,*42
1535274531.29,8108,18.5,73604.3,6.37,6.11,6.13,0,*4C
1535274532.48,8109,18.5,73602.5,6.37,6.13,6.11,0,*4D
1535274533.66,8110,18.5,73608.0,6.37,6.21,6.25,0,*43
1535274534.84,8111,18.5,73610.0,6.37,6.25,6.25,0,*46
1535274536.02,8112,18.5,73606.0,6.37,6.25,6.25,0,*45
1535274537.22,8113,18.5,73604.5,6.37,6.33,6.35,0,*42
1535274538.43,8114,18.5,73600.0,6.37,6.33,6.35,0,*45
1535274539.6,8115,18.5,73602.0,6.37,6.21,6.25,0,*46
1535274540.78,8116,18.5,73602.0,6.37,6.21,6.25,0,*45
1535274541.96,8117,18.5,73602.0,6.37,6.03,6.03,0,*40
1535274543.17,8118,18.5,73600.3,6.37,5.77,5.77,0,*4F
1535274544.37,8119,18.5,73604.3,6.35,5.63,5.63,0,*4C
1535274545.56,8120,18.5,73600.8,6.31,5.29,5.29,0,*42
1535274546.76,8121,18.5,73600.8,6.31,5.37,5.37,0,*43
1535274547.95,8122,18.5,73600.3,6.31,5.37,5.41,0,*41
1535274549.12,8123,18.5,73602.8,6.29,5.45,5.45,0,*48